When you browse on this site, cookies collect data to enhance your experience and personalize the content and advertising you see.
Visit our Privacy Policy to learn more. By continuing to use the site, you agree to this use of cookies and data.
  • In Hungary
  • List of Countries
  • For 7 days
  • Water Temperature
  • Weather Map
  • News
  • Weather Widgets
  • user-avatar
    Login

    Hourly Weather Kreki

    Today, 19 September, Thursday

    Time Temperature Precipitation Wind Pressure Humidity
    00:00 +7°C° 0 mm 3 mps 751 mmHg 87%
    01:00 +6°C° 0 mm 2 mps 751 mmHg 87%
    02:00 +6°C° 0 mm 2 mps 751 mmHg 87%
    03:00 +6°C° 0 mm 2 mps 752 mmHg 88%
    04:00 +6°C° 0 mm 2 mps 752 mmHg 88%
    05:00 +7°C° 0.1 mm 3 mps 752 mmHg 85%
    06:00 +8°C° 0.1 mm 3 mps 752 mmHg 81%
    07:00 +9°C° 0.1 mm 3 mps 753 mmHg 78%
    08:00 +10°C° 0.2 mm 4 mps 753 mmHg 72%
    09:00 +12°C° 0.2 mm 4 mps 753 mmHg 66%
    10:00 +13°C° 0.2 mm 5 mps 754 mmHg 59%
    11:00 +13°C° 0.4 mm 5 mps 754 mmHg 58%
    12:00 +13°C° 0.4 mm 6 mps 754 mmHg 57%
    13:00 +14°C° 0.4 mm 6 mps 754 mmHg 56%
    14:00 +13°C° 0.4 mm 6 mps 754 mmHg 60%
    15:00 +11°C° 0.4 mm 6 mps 754 mmHg 65%
    16:00 +11°C° 0.4 mm 6 mps 754 mmHg 69%
    17:00 +9°C° 0.1 mm 5 mps 755 mmHg 75%
    18:00 +8°C° 0.1 mm 4 mps 755 mmHg 81%
    19:00 +8°C° 0.1 mm 3 mps 755 mmHg 87%
    20:00 +7°C° 0 mm 3 mps 755 mmHg 87%
    21:00 +7°C° 0 mm 3 mps 755 mmHg 86%
    22:00 +5°C° 0 mm 3 mps 756 mmHg 86%
    23:00 +5°C° 0 mm 3 mps 756 mmHg 86%

    Tomorrow, 20 September, Friday

    Time Temperature Precipitation Wind Pressure Humidity
    00:00 +5°C° 0 mm 3 mps 756 mmHg 86%
    01:00 +6°C° 0 mm 2 mps 756 mmHg 86%
    02:00 +6°C° 0 mm 2 mps 756 mmHg 85%
    03:00 +5°C° 0 mm 2 mps 756 mmHg 84%
    04:00 +5°C° 0 mm 2 mps 756 mmHg 82%
    05:00 +6°C° 0 mm 2 mps 756 mmHg 80%
    06:00 +7°C° 0 mm 2 mps 756 mmHg 78%
    07:00 +7°C° 0 mm 2 mps 756 mmHg 77%
    08:00 +9°C° 0 mm 3 mps 757 mmHg 70%
    09:00 +11°C° 0 mm 3 mps 757 mmHg 64%
    10:00 +12°C° 0 mm 3 mps 757 mmHg 58%
    11:00 +13°C° 0.1 mm 3 mps 757 mmHg 53%
    12:00 +13°C° 0.1 mm 3 mps 757 mmHg 49%
    13:00 +14°C° 0.1 mm 3 mps 756 mmHg 45%
    14:00 +14°C° 0 mm 3 mps 756 mmHg 45%
    15:00 +15°C° 0 mm 2 mps 756 mmHg 46%
    16:00 +15°C° 0 mm 2 mps 756 mmHg 47%
    17:00 +14°C° 0 mm 2 mps 755 mmHg 54%
    18:00 +12°C° 0 mm 2 mps 755 mmHg 62%
    19:00 +10°C° 0 mm 3 mps 755 mmHg 69%
    20:00 +10°C° 0 mm 3 mps 755 mmHg 73%
    21:00 +10°C° 0 mm 3 mps 755 mmHg 77%
    22:00 +9°C° 0 mm 3 mps 755 mmHg 81%
    23:00 +8°C° 0 mm 4 mps 754 mmHg 83%

    Day after tomorrow, 21 September, Saturday

    Time Temperature Precipitation Wind Pressure Humidity
    00:00 +10°C° 0 mm 4 mps 754 mmHg 86%
    01:00 +10°C° 0 mm 4 mps 754 mmHg 88%
    02:00 +9°C° 0 mm 5 mps 754 mmHg 89%
    03:00 +9°C° 0 mm 5 mps 754 mmHg 90%
    04:00 +9°C° 0 mm 5 mps 754 mmHg 91%
    05:00 +10°C° 0 mm 5 mps 754 mmHg 89%
    06:00 +10°C° 0 mm 5 mps 753 mmHg 88%
    07:00 +10°C° 0 mm 5 mps 753 mmHg 87%
    08:00 +12°C° 0 mm 5 mps 753 mmHg 84%
    09:00 +13°C° 0 mm 5 mps 753 mmHg 80%
    10:00 +14°C° 0 mm 6 mps 754 mmHg 77%
    11:00 +14°C° 0 mm 6 mps 754 mmHg 74%
    12:00 +15°C° 0 mm 5 mps 754 mmHg 72%
    13:00 +15°C° 0 mm 5 mps 753 mmHg 70%
    14:00 +16°C° 0 mm 5 mps 753 mmHg 69%
    15:00 +16°C° 0 mm 5 mps 753 mmHg 68%
    16:00 +17°C° 0 mm 4 mps 753 mmHg 68%
    17:00 +14°C° 0 mm 3 mps 753 mmHg 75%
    18:00 +13°C° 0 mm 3 mps 753 mmHg 82%
    19:00 +12°C° 0 mm 2 mps 753 mmHg 89%
    20:00 +12°C° 0 mm 2 mps 753 mmHg 90%
    21:00 +10°C° 0 mm 2 mps 753 mmHg 92%
    22:00 +10°C° 0 mm 2 mps 753 mmHg 93%
    23:00 +10°C° 0 mm 2 mps 752 mmHg 93%

    22 September, Sunday

    Time Temperature Precipitation Wind Pressure Humidity
    00:00 +10°C° 0 mm 2 mps 752 mmHg 94%
    01:00 +9°C° 0 mm 2 mps 752 mmHg 94%
    02:00 +9°C° 0 mm 2 mps 752 mmHg 94%
    03:00 +9°C° 0 mm 2 mps 752 mmHg 94%
    04:00 +9°C° 0 mm 2 mps 752 mmHg 94%
    05:00 +9°C° 0 mm 2 mps 752 mmHg 92%
    06:00 +10°C° 0 mm 2 mps 752 mmHg 90%
    07:00 +12°C° 0 mm 2 mps 752 mmHg 88%
    08:00 +14°C° 0 mm 1 mps 752 mmHg 80%
    09:00 +16°C° 0 mm 1 mps 752 mmHg 71%
    10:00 +19°C° 0 mm 1 mps 752 mmHg 63%
    11:00 +20°C° 0 mm 1 mps 752 mmHg 58%
    12:00 +21°C° 0 mm 1 mps 752 mmHg 54%
    13:00 +22°C° 0 mm 1 mps 751 mmHg 49%
    14:00 +22°C° 0 mm 1 mps 751 mmHg 51%
    15:00 +22°C° 0 mm 1 mps 751 mmHg 53%
    16:00 +21°C° 0 mm 1 mps 750 mmHg 56%
    17:00 +20°C° 0 mm 1 mps 750 mmHg 61%
    18:00 +17°C° 0 mm 2 mps 750 mmHg 67%
    19:00 +15°C° 0 mm 2 mps 750 mmHg 73%
    20:00 +13°C° 0 mm 3 mps 750 mmHg 76%
    21:00 +12°C° 0 mm 3 mps 750 mmHg 80%
    22:00 +12°C° 0 mm 3 mps 750 mmHg 83%
    23:00 +11°C° 0 mm 3 mps 749 mmHg 85%

    23 September, Monday

    Time Temperature Precipitation Wind Pressure Humidity
    00:00 +11°C° 0 mm 3 mps 749 mmHg 87%
    01:00 +11°C° 0 mm 3 mps 749 mmHg 88%
    02:00 +10°C° 0 mm 3 mps 748 mmHg 90%
    03:00 +10°C° 0 mm 3 mps 748 mmHg 91%
    04:00 +10°C° 0 mm 3 mps 747 mmHg 92%
    05:00 +10°C° 0 mm 3 mps 747 mmHg 89%
    06:00 +11°C° 0 mm 3 mps 747 mmHg 86%
    07:00 +11°C° 0 mm 4 mps 746 mmHg 83%
    08:00 +13°C° 0 mm 3 mps 746 mmHg 75%
    09:00 +16°C° 0 mm 3 mps 746 mmHg 67%
    10:00 +18°C° 0 mm 3 mps 746 mmHg 59%
    11:00 +19°C° 0 mm 3 mps 746 mmHg 54%
    12:00 +20°C° 0 mm 3 mps 745 mmHg 49%
    13:00 +21°C° 0 mm 2 mps 745 mmHg 45%
    14:00 +21°C° 0 mm 2 mps 744 mmHg 47%
    15:00 +20°C° 0 mm 2 mps 744 mmHg 50%
    16:00 +21°C° 0 mm 1 mps 744 mmHg 52%
    17:00 +19°C° 0 mm 1 mps 743 mmHg 59%
    18:00 +16°C° 0 mm 1 mps 743 mmHg 66%
    19:00 +14°C° 0 mm 1 mps 743 mmHg 72%
    20:00 +13°C° 0 mm 1 mps 743 mmHg 75%
    21:00 +13°C° 0 mm 1 mps 743 mmHg 77%
    22:00 +12°C° 0 mm 1 mps 743 mmHg 79%
    23:00 +12°C° 0 mm 1 mps 743 mmHg 81%

    24 September, Tuesday

    Time Temperature Precipitation Wind Pressure Humidity
    00:00 +12°C° 0 mm 1 mps 744 mmHg 82%
    01:00 +12°C° 0 mm 1 mps 744 mmHg 83%
    02:00 +10°C° 0 mm 2 mps 744 mmHg 87%
    03:00 +9°C° 0 mm 3 mps 744 mmHg 90%
    04:00 +9°C° 0 mm 3 mps 744 mmHg 94%
    05:00 +8°C° 0 mm 3 mps 744 mmHg 92%
    06:00 +7°C° 0 mm 4 mps 745 mmHg 89%
    07:00 +7°C° 0 mm 4 mps 745 mmHg 86%
    08:00 +8°C° 0 mm 4 mps 745 mmHg 81%
    09:00 +10°C° 0 mm 4 mps 746 mmHg 75%
    10:00 +11°C° 0 mm 4 mps 746 mmHg 69%
    11:00 +12°C° 0 mm 4 mps 747 mmHg 67%
    12:00 +12°C° 0 mm 4 mps 747 mmHg 64%
    13:00 +13°C° 0 mm 5 mps 747 mmHg 62%
    14:00 +12°C° 0 mm 5 mps 747 mmHg 63%
    15:00 +10°C° 0 mm 5 mps 747 mmHg 65%
    16:00 +9°C° 0 mm 5 mps 748 mmHg 66%
    17:00 +10°C° 0 mm 4 mps 748 mmHg 66%
    18:00 +8°C° 0 mm 4 mps 748 mmHg 65%
    19:00 +8°C° 0 mm 4 mps 749 mmHg 65%
    20:00 +8°C° 0 mm 3 mps 749 mmHg 66%
    21:00 +7°C° 0 mm 3 mps 749 mmHg 67%
    22:00 +7°C° 0 mm 3 mps 749 mmHg 68%
    23:00 +7°C° 0 mm 3 mps 749 mmHg 68%
    Show more